This demonstration page uses our WeatherBlox Daily Observations layout. Learn more.

Left ArrowRight Arrow

39.51506, -84.39828

Hourly Observations for May 25, 2016

Temp ( °F °C ) Dew Point ( °F °C ) Humidity (%) Winds ( mph kmh ) Pressure ( in mb ) Visibility ( mi km ) Precip ( " mm )
12:15 am 00:15 Clear 60 15.3 51 10.5 73 73 N N/A 30.09 1019 10 16 N/A
12:35 am 00:35 Clear 60 15.3 52 10.9 75 75 N N/A 30.09 1019 10 16 N/A
12:55 am 00:55 Clear 59 15.2 52 11.1 77 77 N N/A 30.09 1019 10 16 N/A
1:15 am 01:15 Clear 60 15.3 52 10.9 75 75 N N/A 30.12 1020 10 16 N/A
1:35 am 01:35 Clear 57 13.8 49 9.7 76 76 N N/A 30.12 1020 10 16 N/A
1:55 am 01:55 Clear 57 13.8 50 10 78 78 N N/A 30.09 1019 10 16 N/A
2:15 am 02:15 Clear 57 13.8 50 9.9 78 78 N N/A 30.09 1019 10 16 N/A
2:35 am 02:35 Clear 57 13.8 50 10 78 78 N N/A 30.12 1020 10 16 N/A
2:55 am 02:55 Clear 57 13.8 50 10.1 79 79 N N/A 30.12 1020 10 16 N/A
3:15 am 03:15 Clear 57 13.8 50 10 78 78 N N/A 30.12 1020 10 16 N/A
3:35 am 03:35 Clear 57 13.8 50 10.1 79 79 N N/A 30.12 1020 10 16 N/A
3:55 am 03:55 Clear 56 13.6 50 10 79 79 N N/A 30.12 1020 10 16 N/A
4:15 am 04:15 Clear 57 13.8 50 10.2 79 79 N N/A 30.12 1020 10 16 N/A
4:35 am 04:35 Partly Cloudy 56 13.1 49 9.6 79 79 N N/A 30.12 1020 10 16 N/A
4:55 am 04:55 Partly Cloudy 57 13.8 50 10.2 79 79 N N/A 30.12 1020 10 16 N/A
5:15 am 05:15 Clear 57 13.8 50 10.1 79 79 N N/A 30.12 1020 10 16 N/A
5:35 am 05:35 Clear 56 13.5 50 10 80 80 N N/A 30.12 1020 10 16 N/A
5:55 am 05:55 Partly Cloudy 56 13.2 50 9.9 81 81 N N/A 30.12 1020 10 16 N/A
6:15 am 06:15 Partly Cloudy 55 12.8 49 9.4 80 80 N N/A 30.12 1020 10 16 N/A
6:35 am 06:35 Mostly Cloudy 57 13.8 51 10.3 80 80 N N/A 30.12 1020 10 16 N/A
6:55 am 06:55 Cloudy 57 13.8 51 10.5 81 81 N N/A 30.12 1020 10 16 N/A
7:15 am 07:15 Cloudy 59 15.2 53 11.7 80 80 N N/A 30.12 1020 10 16 N/A
7:35 am 07:35 Mostly Cloudy 60 15.3 53 11.6 79 79 N N/A 30.12 1020 10 16 N/A
7:55 am 07:55 Cloudy 62 16.6 55 12.5 77 77 N N/A 30.15 1021 10 16 N/A
8:15 am 08:15 Cloudy 63 17 53 11.9 72 72 N N/A 30.12 1020 10 16 N/A
8:35 am 08:35 Mostly Cloudy 65 18.1 53 11.8 67 67 N N/A 30.12 1020 10 16 N/A
8:55 am 08:55 Cloudy 67 19.5 56 13.3 68 68 N N/A 30.12 1020 10 16 N/A
9:15 am 09:15 Mostly Cloudy 69 20.8 58 14.5 67 67 N N/A 30.12 1020 10 16 N/A
9:35 am 09:35 Cloudy 69 20.8 54 12 57 57 S 3 6 30.12 1020 10 16 N/A
9:55 am 09:55 Mostly Cloudy 74 23.3 56 13.1 53 53 SSW 5 7 30.12 1020 10 16 N/A
10:15 am 10:15 Cloudy with Light Rain 72 22.3 54 12.2 53 53 SSW 6 9 30.12 1020 10 16 N/A
10:35 am 10:35 Cloudy 71 21.9 54 12.3 55 55 N N/A 30.12 1020 10 16 N/A
10:55 am 10:55 Mostly Cloudy 74 23.6 54 12.2 49 49 S 3 6 30.12 1020 10 16 N/A
11:15 am 11:15 Mostly Cloudy 74 23.6 53 11.9 48 48 S 9 15 30.12 1020 10 16 N/A
11:35 am 11:35 Mostly Cloudy 74 23.6 53 11.8 48 48 SSE 8 13 30.12 1020 10 16 N/A
11:55 am 11:55 Partly Cloudy 75 23.9 55 12.7 50 50 SE 6 9 30.12 1020 10 16 N/A
12:15 pm 12:15 Partly Cloudy 77 25.1 56 13.5 49 49 SSE 5 7 30.12 1020 10 16 N/A
12:35 pm 12:35 Mostly Cloudy 80 26.5 56 13.1 44 44 SE 9 15 30.09 1019 10 16 N/A
12:55 pm 12:55 Partly Cloudy 81 27 56 13.5 43 43 SE 9 15 30.09 1019 10 16 N/A
1:15 pm 13:15 Mostly Cloudy 80 26.5 57 14 46 46 SSE 8 13 30.09 1019 10 16 N/A
1:35 pm 13:35 Mostly Cloudy 81 27.2 57 13.8 44 44 SSE 10 17 30.09 1019 10 16 N/A
1:55 pm 13:55 Mostly Cloudy 82 27.6 56 13.6 42 42 S 12 19 30.09 1019 10 16 N/A
2:15 pm 14:15 Partly Cloudy 81 27.3 58 14.2 45 45 SSE 8 13 30.09 1019 10 16 N/A
2:35 pm 14:35 Sunny 82 28 57 13.7 41 41 S 12 19 30.06 1018 10 16 N/A
2:55 pm 14:55 Partly Cloudy 82 28 56 13.5 41 41 SSE 10 17 30.06 1018 10 16 N/A
3:15 pm 15:15 Sunny 82 28 56 13.2 40 40 S 13 20 30.06 1018 10 16 N/A
3:35 pm 15:35 Sunny 82 28 56 13.5 41 41 S 10 17 30.06 1018 10 16 N/A
3:55 pm 15:55 Sunny 82 28 56 13.5 41 41 SSE 10 17 30.06 1018 10 16 N/A
4:15 pm 16:15 Sunny 82 28 55 12.9 39 39 S 10 17 30.06 1018 10 16 N/A
4:35 pm 16:35 Partly Cloudy 82 28 56 13.2 40 40 SSE 13 20 30.06 1018 10 16 N/A
4:55 pm 16:55 Partly Cloudy 82 28 54 12 37 37 S 16 26 30.03 1017 10 16 N/A
5:15 pm 17:15 Sunny 82 28 55 12.9 39 39 SSW 9 15 30.03 1017 10 16 N/A
5:35 pm 17:35 Sunny 82 28 55 13 40 40 S 12 19 30.03 1017 10 16 N/A
5:55 pm 17:55 Sunny 83 28.1 55 12.8 39 39 SSW 15 24 30.03 1017 10 16 N/A
6:15 pm 18:15 Partly Cloudy 82 28 56 13.3 40 40 S 10 17 30.03 1017 10 16 N/A
6:35 pm 18:35 Partly Cloudy 82 27.7 57 14 43 43 SSE 10 17 30.00 1016 10 16 N/A
6:55 pm 18:55 Sunny 81 27.2 57 14.1 45 45 SSE 8 13 30.00 1016 10 16 N/A
7:15 pm 19:15 Sunny 81 27.2 58 14.3 45 45 SSE 10 17 30.00 1016 10 16 N/A
7:35 pm 19:35 Partly Cloudy 80 26.6 58 14.2 47 47 SSE 6 9 30.00 1016 10 16 N/A
7:55 pm 19:55 Sunny 80 26.5 57 14.1 46 46 S 10 17 30.00 1016 10 16 N/A
8:15 pm 20:15 Partly Cloudy 80 26.5 58 14.5 48 48 S 6 9 30.00 1016 10 16 N/A
8:35 pm 20:35 Sunny 80 26.5 58 14.6 48 48 S 8 13 30.00 1016 10 16 N/A
8:55 pm 20:55 Partly Cloudy 80 26.5 58 14.3 47 47 S 9 15 30.03 1017 10 16 N/A
9:15 pm 21:15 Partly Cloudy 77 25.1 57 14.1 51 51 S 10 17 30.03 1017 10 16 N/A
9:35 pm 21:35 Partly Cloudy 76 24.2 59 15.1 57 57 S 5 7 30.03 1017 10 16 N/A
9:55 pm 21:55 Mostly Cloudy 77 25.1 59 14.9 53 53 S 9 15 30.03 1017 10 16 N/A
10:15 pm 22:15 Mostly Cloudy 77 25.1 60 15.3 55 55 S 9 15 30.03 1017 10 16 N/A
10:35 pm 22:35 Partly Cloudy 77 25.1 61 16 57 57 SSW 7 11 30.06 1018 10 16 N/A
10:55 pm 22:55 Clear 74 23.6 60 15.8 62 62 SSW 6 9 30.06 1018 10 16 N/A
11:15 pm 23:15 Clear 74 23.6 61 16.2 63 63 S 6 9 30.06 1018 10 16 N/A
11:35 pm 23:35 Clear 74 23.6 61 16 63 63 S 7 11 30.03 1017 10 16 N/A
11:55 pm 23:55 Clear 74 23.6 62 16.5 65 65 SSW 6 9 30.03 1017 10 16 N/A

Powered by AerisWeather